Location: Gerlach
(40.6516°N, 119.3568°W)
Time: 15:39:28
(UTC-07:00)

SPROUT - Visible Passes

Search period start: 18 April 2024 00:00
Search period end: 28 April 2024 00:00
Orbit: 471 x 477 km, 98.0° (Epoch: 18 April)

Date Brightness Start Highest point End Pass type
(mag) Time Alt. Az. Time Alt. Az. Time Alt. Az.
18 Apr ? 04:00:16 25° NNW 04:00:16 25° NNW 04:01:56 10° NNW visible
19 Apr ? 03:32:08 31° NNE 03:32:08 31° NNE 03:34:13 10° N visible
20 Apr ? 03:03:46 21° NE 03:03:46 21° NE 03:05:48 10° NNE visible
20 Apr ? 04:37:53 14° WNW 04:37:53 14° WNW 04:38:46 10° NW visible
21 Apr ? 02:35:10 10° ENE 02:35:10 10° ENE 02:35:47 10° NE visible
21 Apr ? 04:09:15 29° NW 04:09:15 29° NW 04:11:14 10° NNW visible
22 Apr ? 03:40:23 42° N 03:40:23 42° N 03:42:54 10° N visible
23 Apr ? 03:11:17 26° ENE 03:11:17 26° ENE 03:13:51 10° NNE visible
23 Apr ? 04:45:19 14° WNW 04:45:19 14° WNW 04:46:18 10° NW visible
24 Apr ? 02:41:56 12° ENE 02:42:14 12° ENE 02:43:40 10° NE visible
24 Apr ? 04:15:57 31° WNW 04:15:57 31° WNW 04:18:14 10° NNW visible
25 Apr ? 03:46:21 58° N 03:46:21 58° N 03:49:15 10° N visible
26 Apr ? 03:16:30 30° ENE 03:16:30 30° ENE 03:19:33 10° N visible
26 Apr ? 04:50:30 13° WNW 04:50:30 13° WNW 04:51:34 10° WNW visible
27 Apr ? 02:46:24 13° ENE 02:47:04 13° ENE 02:48:48 10° NE visible
27 Apr ? 04:20:23 32° WNW 04:20:23 32° WNW 04:22:59 10° NNW visible
